Vilanova de Sau





Hora UTC 08:15
Temperatura 1.4 ºC
Humitat 99.4 %
Pressió 999.2 hPa
Pluja 0.0 mm
Velocitat vent 0.0 km/h
Direcció vent NNE
Radiació solar 47.1 W/m²
Fuel 283.4 %

Dades diàries 2019-11-15



Hora UTC (hivern +1h; estiu +2h)
Temperatura (ºC) Humitat (%) Pressió (hPa) Velocitat vent (km/h) Precipitació (mm) Fuel (%) Radiació solar (W/m²)
Hora UTC Aire Humitat Pressió Vel. Dir. Vel. Max Dir. Intent. màx 5 min. Fuel Rad. Sol.
00:05 1.6 98.2 997.3 0.0 NNE 0.0 SW 0.0 305.1 0.0
00:10 1.6 98.2 997.3 0.0 NNE 0.0 SSW 0.0 305.3 0.0
00:15 1.4 98.0 997.3 0.0 NNE 0.0 SSW 0.0 305.5 0.0
00:20 1.4 98.2 997.4 0.0 NNE 0.0 SSW 0.0 305.7 0.0
00:25 1.4 98.2 997.5 0.0 NNE 0.0 WSW 0.0 305.9 0.0
00:30 1.4 98.3 997.5 0.0 NNE 0.0 W 0.0 306.0 0.0
00:35 1.3 98.1 997.5 0.0 NNE 0.0 E 0.0 306.2 0.0
00:40 1.2 98.1 997.5 0.0 NNE 0.0 E 0.0 306.4 0.0
00:45 1.2 98.3 997.5 0.0 NNE 0.0 SW 0.0 306.8 0.0
00:50 1.1 98.3 997.6 0.0 NNE 0.0 SW 0.0 307.0 0.0
00:55 1.0 98.3 997.6 0.0 NNE 0.0 SW 0.0 307.2 0.0
01:00 0.9 98.4 997.5 0.0 NNE 0.0 SW 0.0 307.6 0.0
01:05 1.0 98.6 997.5 0.0 NNE 0.0 WSW 0.0 308.0 0.0
01:10 1.0 98.4 997.5 0.0 NNE 0.0 WSW 0.0 308.4 0.0
01:15 0.9 98.5 997.6 0.0 NNE 0.0 SW 0.0 308.7 0.0
01:20 0.9 98.6 997.6 0.0 NNE 0.0 SW 0.0 309.0 0.0
01:25 0.9 98.7 997.6 0.0 NNE 0.0 SW 0.0 309.3 0.0
01:30 0.9 98.8 997.6 0.0 NNE 0.0 SW 0.0 309.7 0.0
01:35 0.8 98.8 997.6 0.0 NNE 0.0 SW 0.0 309.9 0.0
01:40 0.8 98.8 997.7 0.0 NNE 0.0 SW 0.0 310.2 0.0
01:45 0.8 98.8 997.8 0.0 NNE 0.0 SW 0.0 310.5 0.0
01:50 1.0 99.1 997.8 0.0 NNE 0.0 WSW 0.0 310.9 0.0
01:55 1.2 99.1 997.8 0.0 NNE 0.0 W 0.0 311.3 0.0
02:00 1.1 98.8 997.8 0.0 NNE 0.0 SW 0.0 311.5 0.0
02:05 1.0 98.8 997.9 0.0 NNE 0.0 SW 0.0 311.6 0.0
02:10 0.9 98.8 997.8 0.0 NNE 0.0 SW 0.0 311.9 0.0
02:15 0.9 99.0 997.7 0.0 NNE 0.0 W 0.0 312.2 0.0
02:20 0.8 98.7 997.8 0.0 NNE 0.0 SW 0.0 312.5 0.0
02:25 0.7 98.8 997.8 0.0 NNE 0.0 SW 0.0 312.7 0.0
02:30 0.6 98.9 997.8 0.0 NNE 0.0 SW 0.0 313.0 0.0
02:35 0.6 99.0 997.7 0.0 NNE 0.0 SW 0.0 313.3 0.0
02:40 0.6 98.9 997.7 0.0 NNE 0.0 SW 0.0 313.6 0.0
02:45 0.6 99.0 997.7 0.0 NNE 0.0 SW 0.0 313.9 0.0
02:50 0.5 99.1 997.7 0.0 NNE 0.0 SW 0.0 314.1 0.0
02:55 0.5 99.1 997.8 0.0 NNE 0.0 SW 0.0 314.4 0.0
03:00 0.5 99.1 997.8 0.0 NNE 0.0 SW 0.0 314.6 0.0
03:05 0.5 99.1 997.8 0.0 NNE 0.0 SW 0.0 315.0 0.0
03:10 0.6 99.3 997.8 0.0 NNE 0.0 SW 0.0 315.4 0.0
03:15 0.6 99.3 997.8 0.0 NNE 0.0 SW 0.0 315.6 0.0
03:20 0.6 99.2 997.9 0.0 NNE 0.0 SW 0.0 315.9 0.0
03:25 0.6 99.2 997.9 0.0 NNE 0.0 SSE 0.0 316.1 0.0
03:30 0.6 99.2 997.8 0.0 NNE 0.0 S 0.0 316.4 0.0
03:35 0.6 99.2 997.8 0.0 NNE 0.0 WNW 0.0 316.7 0.0
03:40 0.5 99.1 997.7 0.0 NNE 0.0 W 0.0 316.9 0.0
03:45 0.4 99.1 997.7 0.0 NNE 0.0 W 0.0 317.2 0.0
03:50 0.4 99.2 997.8 0.0 NNE 0.0 WSW 0.0 316.5 0.0
03:55 0.3 99.2 997.9 0.0 NNE 0.0 WSW 0.0 306.2 0.0
04:00 0.4 99.3 997.9 0.0 NNE 0.0 WSW 0.0 301.1 0.0
04:05 0.4 99.3 998.0 0.0 NNE 0.0 WSW 0.0 297.5 0.0
04:10 0.7 99.7 998.0 0.0 NNE 0.0 WSW 0.0 296.1 0.0
04:15 0.9 99.6 997.9 0.0 NNE 0.0 W 0.0 298.5 0.0
04:20 1.0 99.4 997.9 0.0 NNE 0.0 WSW 0.0 300.6 0.0
04:25 0.8 99.1 998.0 0.0 NNE 0.0 E 0.0 300.9 0.0
04:30 0.7 99.0 998.0 0.0 NNE 0.0 ENE 0.0 299.7 0.0
04:35 0.7 99.1 998.0 0.0 NNE 0.0 SE 0.0 299.3 0.0
04:40 0.7 99.2 997.9 0.0 NNE 0.0 SSE 0.0 298.7 0.0
04:45 0.7 99.2 997.9 0.0 NNE 0.0 WSW 0.0 297.7 0.0
04:50 0.6 99.2 997.9 0.0 NNE 0.0 SW 0.0 295.5 0.0
04:55 0.4 99.0 997.9 0.0 NNE 0.0 SW 0.0 290.2 0.0
05:00 0.3 99.1 997.9 0.0 NNE 0.0 SW 0.0 282.7 0.0
05:05 0.1 99.0 997.8 0.0 NNE 0.0 SW 0.0 274.3 0.0
05:10 0.0 99.1 997.8 0.0 NNE 0.0 SW 0.0 265.3 0.0
05:15 -0.1 99.2 997.9 0.0 NNE 0.0 SW 0.0 256.5 0.0
05:20 0.0 99.3 997.9 0.0 NNE 0.0 SW 0.0 248.8 0.0
05:25 0.0 99.4 997.9 0.0 NNE 0.0 SW 0.0 242.6 0.0
05:30 0.0 99.4 998.0 0.0 NNE 0.0 SW 0.0 237.4 0.0
05:35 -0.1 99.4 998.0 0.0 NNE 0.0 SW 0.0 232.8 0.0
05:40 -0.1 99.5 998.1 0.0 NNE 0.0 SW 0.0 228.8 0.0
05:45 -0.1 99.5 998.0 0.0 NNE 0.0 SW 0.0 224.9 0.0
05:50 0.0 99.6 998.1 0.0 NNE 0.0 SW 0.0 221.1 0.0
05:55 0.0 99.6 998.1 0.0 NNE 0.0 SW 0.0 217.8 0.0
06:00 0.0 99.6 998.0 0.0 NNE 0.0 SW 0.0 214.4 0.0
06:05 0.0 99.5 998.0 0.0 NNE 0.0 SW 0.0 210.6 0.0
06:10 0.0 99.6 998.0 0.0 NNE 0.0 SW 0.0 207.2 0.0
06:15 0.0 99.6 998.0 0.0 NNE 0.0 SW 0.0 204.1 0.0
06:20 0.0 99.5 998.2 0.0 NNE 0.0 SW 0.0 201.0 0.0
06:25 -0.1 99.5 998.2 0.0 NNE 0.0 SW 0.0 198.4 0.1
06:30 -0.1 99.5 998.2 0.0 NNE 0.0 SW 0.0 196.3 0.3
06:35 -0.1 99.7 998.2 0.0 NNE 0.0 SW 0.0 195.6 1.0
06:40 -0.1 99.5 998.2 0.0 NNE 0.0 SW 0.0 195.0 2.2
06:45 -0.1 99.5 998.2 0.0 NNE 0.0 SW 0.0 194.6 3.9
06:50 -0.2 99.5 998.2 0.0 NNE 0.0 SW 0.0 194.0 6.2
06:55 -0.3 99.5 998.3 0.0 NNE 0.0 SW 0.0 193.8 8.4
07:00 -0.2 99.6 998.3 0.0 NNE 0.0 SW 0.0 195.0 9.3
07:05 0.0 99.8 998.4 0.0 NNE 0.0 SW 0.0 196.9 10.9
07:10 0.2 99.9 998.5 0.0 NNE 0.0 SW 0.0 199.6 12.0
07:15 0.5 99.9 998.7 0.0 NNE 0.0 SW 0.0 203.7 13.9
07:20 0.6 99.8 998.8 0.0 NNE 0.0 SW 0.0 208.1 16.0
07:25 0.7 99.7 998.9 0.0 NNE 0.0 SW 0.0 212.7 17.6
07:30 0.8 99.6 998.9 0.0 NNE 0.0 SW 0.0 217.7 20.2
07:35 0.8 99.6 999.0 0.0 NNE 0.0 SW 0.0 223.0 22.7
07:40 0.9 99.6 999.2 0.0 NNE 0.0 SW 0.0 228.5 24.0
07:45 1.0 99.7 999.2 0.0 NNE 0.0 SW 0.0 235.2 28.1
07:50 1.1 99.6 999.2 0.0 NNE 0.0 WSW 0.0 243.9 30.5
07:55 1.1 99.6 999.2 0.0 NNE 0.0 SW 0.0 252.2 35.8
08:00 1.3 99.6 999.2 0.0 NNE 0.0 SW 0.0 260.2 40.2
08:05 1.3 99.5 999.3 0.0 NNE 0.0 S 0.0 268.0 42.3
08:10 1.4 99.5 999.3 0.0 NNE 0.0 SE 0.0 275.6 41.5
08:15 1.4 99.4 999.2 0.0 NNE 0.0 S 0.0 283.4 47.1
Màxima 1.6 99.9 999.3 0.0 NNE 0.0 S 0.0 317.2 47.1
Mínima -0.3 98.0 997.3 193.8
Total 0.0